Time,TemperatureF,DewpointF,PressureIn,WindDirection,WindDirectionDegrees,WindSpeedMPH,WindSpeedGustMPH,Humidity,HourlyPrecipIn,Conditions,Clouds,dailyrainin,SoftwareType,DateUTC
2013-01-13 00:00:00,58.3,57.2,30.01,WSW,242,0.0,0.0,96,0.00,,SKC,0.00,VWS V14.01,2013-01-13 05:00:00,
2013-01-13 00:03:00,58.3,57.2,30.01,WSW,242,0.0,0.0,96,0.00,,SKC,0.00,VWS V14.01,2013-01-13 05:03:00,
2013-01-13 00:08:00,58.1,57.0,30.01,WSW,242,0.0,0.0,96,0.00,,SKC,0.00,VWS V14.01,2013-01-13 05:08:00,
2013-01-13 00:13:00,58.0,56.9,30.01,WSW,242,0.0,0.0,96,0.00,,SKC,0.00,VWS V14.01,2013-01-13 05:13:00,
2013-01-13 00:18:00,58.0,56.9,30.00,WSW,242,0.0,0.0,96,0.00,,SKC,0.00,VWS V14.01,2013-01-13 05:18:00,
2013-01-13 00:23:00,58.0,56.9,30.00,WSW,242,0.0,0.0,96,0.00,,SKC,0.00,VWS V14.01,2013-01-13 05:23:00,
2013-01-13 00:28:00,58.0,57.2,30.00,WSW,242,0.0,0.0,97,0.00,,SKC,0.00,VWS V14.01,2013-01-13 05:28:00,
2013-01-13 00:33:00,58.0,57.2,30.00,WSW,242,0.0,0.0,97,0.00,,SKC,0.00,VWS V14.01,2013-01-13 05:33:00,
2013-01-13 00:38:00,57.8,56.7,30.00,WSW,242,0.0,0.0,96,0.00,,SKC,0.00,VWS V14.01,2013-01-13 05:38:00,
2013-01-13 00:43:00,57.6,56.5,30.00,WSW,242,0.0,0.0,96,0.00,,SKC,0.00,VWS V14.01,2013-01-13 05:43:00,
2013-01-13 00:48:00,57.8,57.0,30.00,WSW,243,0.0,0.0,97,0.00,,SKC,0.00,VWS V14.01,2013-01-13 05:48:00,
2013-01-13 00:53:00,57.8,57.0,30.00,WSW,246,0.0,0.0,97,0.00,,SKC,0.00,VWS V14.01,2013-01-13 05:53:00,
2013-01-13 00:58:00,58.0,57.2,30.00,WSW,246,0.0,0.0,97,0.00,,SKC,0.00,VWS V14.01,2013-01-13 05:58:00,
2013-01-13 01:03:00,57.8,57.0,30.00,WSW,246,0.0,0.0,97,0.00,,SKC,0.00,VWS V14.01,2013-01-13 06:03:00,
2013-01-13 01:08:00,57.8,57.0,30.00,WSW,246,0.0,0.0,97,0.00,,SKC,0.00,VWS V14.01,2013-01-13 06:08:00,
2013-01-13 01:13:00,57.8,57.0,30.00,WSW,246,0.0,0.0,97,0.00,,SKC,0.00,VWS V14.01,2013-01-13 06:13:00,
2013-01-13 01:18:00,57.8,57.0,29.99,WSW,248,0.0,0.0,97,0.00,,SKC,0.00,VWS V14.01,2013-01-13 06:18:00,
2013-01-13 01:23:00,58.1,57.5,29.99,WSW,248,0.0,0.0,98,0.00,,SKC,0.00,VWS V14.01,2013-01-13 06:23:00,
2013-01-13 01:28:00,58.3,57.5,29.99,WSW,248,0.0,0.0,97,0.00,,SKC,0.00,VWS V14.01,2013-01-13 06:28:00,
2013-01-13 01:33:00,58.3,57.5,29.99,WSW,248,0.0,0.0,97,0.00,,SKC,0.00,VWS V14.01,2013-01-13 06:33:00,
2013-01-13 01:38:00,58.4,57.6,29.99,WSW,248,0.0,0.0,97,0.00,,SKC,0.00,VWS V14.01,2013-01-13 06:38:00,
2013-01-13 01:43:00,58.7,57.8,29.99,WSW,248,0.0,0.0,97,0.00,,SKC,0.00,VWS V14.01,2013-01-13 06:43:00,
2013-01-13 01:48:00,58.6,57.5,29.99,WSW,248,0.0,0.0,96,0.00,,SKC,0.00,VWS V14.01,2013-01-13 06:48:00,
2013-01-13 01:53:00,58.6,57.5,29.99,WSW,248,0.0,0.0,96,0.00,,SKC,0.00,VWS V14.01,2013-01-13 06:53:00,
2013-01-13 01:58:00,58.6,57.5,29.99,WSW,248,0.0,0.0,96,0.00,,SKC,0.00,VWS V14.01,2013-01-13 06:58:00,
2013-01-13 02:03:00,58.6,57.5,29.98,WSW,248,0.0,0.0,96,0.00,,SKC,0.00,VWS V14.01,2013-01-13 07:03:00,
2013-01-13 02:08:00,58.4,57.0,29.98,WSW,248,0.0,0.0,95,0.00,,SKC,0.00,VWS V14.01,2013-01-13 07:08:00,
2013-01-13 02:13:00,58.3,56.9,29.98,WSW,248,0.0,0.0,95,0.00,,SKC,0.00,VWS V14.01,2013-01-13 07:13:00,
2013-01-13 02:18:00,58.3,56.9,29.99,WSW,248,0.0,0.0,95,0.00,,SKC,0.00,VWS V14.01,2013-01-13 07:18:00,
2013-01-13 02:23:00,58.1,56.7,29.99,WSW,248,0.0,0.0,95,0.00,,SKC,0.00,VWS V14.01,2013-01-13 07:23:00,
2013-01-13 02:28:00,58.3,56.9,29.99,WSW,248,0.0,0.0,95,0.00,,SKC,0.00,VWS V14.01,2013-01-13 07:28:00,
2013-01-13 02:33:00,58.3,57.2,29.99,WSW,248,0.0,0.0,96,0.00,,SKC,0.00,VWS V14.01,2013-01-13 07:33:00,
2013-01-13 02:38:00,58.3,56.9,29.99,WSW,248,0.0,0.0,95,0.00,,SKC,0.00,VWS V14.01,2013-01-13 07:38:00,
2013-01-13 02:43:00,58.6,57.2,29.99,WSW,248,0.0,0.0,95,0.00,,SKC,0.00,VWS V14.01,2013-01-13 07:43:00,
2013-01-13 02:48:00,58.7,57.3,29.98,WSW,248,0.0,0.0,95,0.00,,SKC,0.00,VWS V14.01,2013-01-13 07:48:00,
2013-01-13 02:53:00,59.0,57.6,29.98,WSW,250,0.0,0.0,95,0.00,,SKC,0.00,VWS V14.01,2013-01-13 07:53:00,
2013-01-13 02:58:00,59.3,57.6,29.98,WSW,250,0.0,0.0,94,0.00,,SKC,0.00,VWS V14.01,2013-01-13 07:58:00,
2013-01-13 03:03:00,59.3,57.6,29.97,WSW,250,0.0,0.0,94,0.00,,SKC,0.00,VWS V14.01,2013-01-13 08:03:00,
2013-01-13 03:08:00,59.5,57.5,29.97,WSW,250,0.0,0.0,93,0.00,,SKC,0.00,VWS V14.01,2013-01-13 08:08:00,
2013-01-13 03:13:00,59.5,57.5,29.97,WSW,250,0.0,0.0,93,0.00,,SKC,0.00,VWS V14.01,2013-01-13 08:13:00,
2013-01-13 03:18:00,59.5,57.5,29.98,WSW,250,0.0,0.0,93,0.00,,SKC,0.00,VWS V14.01,2013-01-13 08:18:00,
2013-01-13 03:23:00,59.5,57.5,29.98,West,260,0.0,0.0,93,0.00,,SKC,0.00,VWS V14.01,2013-01-13 08:23:00,
2013-01-13 03:28:00,59.5,57.5,29.98,West,260,0.0,0.0,93,0.00,,SKC,0.00,VWS V14.01,2013-01-13 08:28:00,
2013-01-13 03:33:00,59.3,57.0,29.97,West,260,0.0,0.0,92,0.00,,SKC,0.00,VWS V14.01,2013-01-13 08:33:00,
2013-01-13 03:38:00,59.2,57.2,29.97,West,262,0.0,0.0,93,0.00,,SKC,0.00,VWS V14.01,2013-01-13 08:38:00,
2013-01-13 03:43:00,59.2,57.2,29.97,West,262,0.0,0.0,93,0.00,,SKC,0.00,VWS V14.01,2013-01-13 08:43:00,
2013-01-13 03:48:00,59.0,57.0,29.97,West,262,0.0,0.0,93,0.00,,SKC,0.00,VWS V14.01,2013-01-13 08:48:00,
2013-01-13 03:53:00,59.0,57.0,29.97,West,262,0.0,0.0,93,0.00,,SKC,0.00,VWS V14.01,2013-01-13 08:53:00,
2013-01-13 03:58:00,58.9,56.9,29.97,West,262,0.0,0.0,93,0.00,,SKC,0.00,VWS V14.01,2013-01-13 08:58:00,
2013-01-13 04:02:00,58.9,56.9,29.97,West,262,0.0,0.0,93,0.00,,SKC,0.00,VWS V14.01,2013-01-13 09:02:00,
2013-01-13 04:07:00,58.9,56.9,29.97,West,262,0.0,0.0,93,0.00,,SKC,0.00,VWS V14.01,2013-01-13 09:07:00,
2013-01-13 04:12:00,58.9,56.9,29.97,West,262,0.0,0.0,93,0.00,,SKC,0.00,VWS V14.01,2013-01-13 09:12:00,
2013-01-13 04:17:00,58.7,56.7,29.96,West,262,0.0,0.0,93,0.00,,SKC,0.00,VWS V14.01,2013-01-13 09:17:00,
2013-01-13 04:22:00,58.7,56.7,29.96,West,262,0.0,0.0,93,0.00,,SKC,0.00,VWS V14.01,2013-01-13 09:22:00,
2013-01-13 04:27:00,58.7,57.0,29.96,West,262,0.0,0.0,94,0.00,,SKC,0.00,VWS V14.01,2013-01-13 09:27:00,
2013-01-13 04:32:00,58.6,56.9,29.96,West,262,0.0,0.0,94,0.00,,SKC,0.00,VWS V14.01,2013-01-13 09:32:00,
2013-01-13 04:37:00,58.4,56.7,29.96,West,260,0.0,0.0,94,0.00,,SKC,0.00,VWS V14.01,2013-01-13 09:37:00,
2013-01-13 04:42:00,58.4,56.7,29.96,WSW,258,0.0,0.0,94,0.00,,SKC,0.00,VWS V14.01,2013-01-13 09:42:00,
2013-01-13 04:47:00,58.3,56.6,29.95,WSW,248,0.0,0.0,94,0.00,,SKC,0.00,VWS V14.01,2013-01-13 09:47:00,
2013-01-13 04:52:00,58.3,56.9,29.95,WSW,245,0.0,0.0,95,0.00,,SKC,0.00,VWS V14.01,2013-01-13 09:52:00,
2013-01-13 04:57:00,58.1,56.7,29.95,WSW,239,0.0,0.0,95,0.00,,SKC,0.00,VWS V14.01,2013-01-13 09:57:00,
2013-01-13 05:02:00,57.8,56.1,29.96,WSW,239,0.0,0.0,94,0.00,,SKC,0.00,VWS V14.01,2013-01-13 10:02:00,
2013-01-13 05:07:00,57.6,56.2,29.96,WSW,239,0.0,0.0,95,0.00,,SKC,0.00,VWS V14.01,2013-01-13 10:07:00,
2013-01-13 05:12:00,57.3,55.9,29.96,WSW,239,0.0,0.0,95,0.00,,SKC,0.00,VWS V14.01,2013-01-13 10:12:00,
2013-01-13 05:17:00,57.2,55.8,29.96,WSW,239,0.0,0.0,95,0.00,,SKC,0.00,VWS V14.01,2013-01-13 10:17:00,
2013-01-13 05:22:00,57.2,56.1,29.96,WSW,239,0.0,0.0,96,0.00,,SKC,0.00,VWS V14.01,2013-01-13 10:22:00,
2013-01-13 05:27:00,57.0,55.9,29.96,WSW,239,0.0,0.0,96,0.00,,SKC,0.00,VWS V14.01,2013-01-13 10:27:00,
2013-01-13 05:32:00,56.9,55.8,29.96,WSW,240,0.0,0.0,96,0.00,,SKC,0.00,VWS V14.01,2013-01-13 10:32:00,
2013-01-13 05:37:00,56.9,55.8,29.96,WSW,240,0.0,0.0,96,0.00,,SKC,0.00,VWS V14.01,2013-01-13 10:37:00,
2013-01-13 05:42:00,56.9,55.8,29.96,WSW,240,0.0,0.0,96,0.00,,SKC,0.00,VWS V14.01,2013-01-13 10:42:00,
2013-01-13 05:47:00,56.9,55.8,29.96,WSW,240,0.0,0.0,96,0.00,,SKC,0.00,VWS V14.01,2013-01-13 10:47:00,
2013-01-13 05:52:00,56.7,55.6,29.96,WSW,240,0.0,0.0,96,0.00,,SKC,0.00,VWS V14.01,2013-01-13 10:52:00,
2013-01-13 05:57:00,56.7,55.9,29.96,WSW,241,0.0,0.0,97,0.00,,SKC,0.00,VWS V14.01,2013-01-13 10:57:00,
2013-01-13 06:02:00,56.7,55.9,29.96,WSW,241,0.0,0.0,97,0.01,,SKC,0.01,VWS V14.01,2013-01-13 11:02:00,
2013-01-13 06:07:00,56.7,55.9,29.96,WSW,243,0.0,0.0,97,0.01,,SKC,0.01,VWS V14.01,2013-01-13 11:07:00,
2013-01-13 06:12:00,56.7,55.9,29.96,WSW,243,0.0,0.0,97,0.01,,SKC,0.01,VWS V14.01,2013-01-13 11:12:00,
2013-01-13 06:17:00,56.6,56.0,29.96,WSW,243,0.0,0.0,98,0.01,,SKC,0.01,VWS V14.01,2013-01-13 11:17:00,
2013-01-13 06:22:00,56.6,56.0,29.96,WSW,243,0.0,0.0,98,0.01,,SKC,0.01,VWS V14.01,2013-01-13 11:22:00,
2013-01-13 06:27:00,56.7,56.1,29.96,West,262,0.0,0.0,98,0.01,,SKC,0.01,VWS V14.01,2013-01-13 11:27:00,
2013-01-13 06:32:00,56.7,56.1,29.97,West,264,0.0,0.0,98,0.01,,SKC,0.01,VWS V14.01,2013-01-13 11:32:00,
2013-01-13 06:37:00,56.7,56.1,29.97,West,264,0.0,0.0,98,0.01,,SKC,0.01,VWS V14.01,2013-01-13 11:37:00,
2013-01-13 06:42:00,56.9,56.3,29.97,West,264,0.0,0.0,98,0.01,,SKC,0.01,VWS V14.01,2013-01-13 11:42:00,
2013-01-13 06:47:00,56.7,56.1,29.97,West,264,0.0,0.0,98,0.01,,SKC,0.01,VWS V14.01,2013-01-13 11:47:00,
2013-01-13 06:52:00,56.7,56.1,29.97,West,264,0.0,0.0,98,0.01,,SKC,0.01,VWS V14.01,2013-01-13 11:52:00,
2013-01-13 06:57:00,56.7,56.1,29.97,West,264,0.0,0.0,98,0.01,,SKC,0.01,VWS V14.01,2013-01-13 11:57:00,
2013-01-13 07:02:00,56.9,56.3,29.99,West,264,0.0,0.0,98,0.00,,SKC,0.01,VWS V14.01,2013-01-13 12:02:00,
2013-01-13 07:07:00,57.2,56.6,29.99,West,264,0.0,0.0,98,0.00,,SKC,0.01,VWS V14.01,2013-01-13 12:07:00,
2013-01-13 07:12:00,57.2,56.6,29.99,West,264,0.0,0.0,98,0.00,,SKC,0.01,VWS V14.01,2013-01-13 12:12:00,
2013-01-13 07:17:00,57.2,56.4,29.99,West,265,0.0,0.0,97,0.00,,SKC,0.01,VWS V14.01,2013-01-13 12:17:00,
2013-01-13 07:22:00,57.2,56.1,29.99,West,265,0.0,0.0,96,0.00,,SKC,0.01,VWS V14.01,2013-01-13 12:22:00,
2013-01-13 07:27:00,57.2,56.1,29.99,West,265,0.0,0.0,96,0.00,,SKC,0.01,VWS V14.01,2013-01-13 12:27:00,
2013-01-13 07:32:00,57.3,56.2,30.00,West,265,0.0,0.0,96,0.00,,SKC,0.01,VWS V14.01,2013-01-13 12:32:00,
2013-01-13 07:37:00,57.3,56.2,30.00,West,265,0.0,0.0,96,0.00,,SKC,0.01,VWS V14.01,2013-01-13 12:37:00,
2013-01-13 07:42:00,57.3,56.2,30.00,West,265,0.0,0.0,96,0.00,,SKC,0.01,VWS V14.01,2013-01-13 12:42:00,
2013-01-13 07:47:00,57.3,56.2,30.00,West,261,0.0,0.0,96,0.00,,SKC,0.01,VWS V14.01,2013-01-13 12:47:00,
2013-01-13 07:52:00,57.2,56.1,30.00,WSW,251,0.0,0.0,96,0.00,,SKC,0.01,VWS V14.01,2013-01-13 12:52:00,
2013-01-13 07:57:00,57.0,55.6,30.00,WSW,251,0.0,0.0,95,0.00,,SKC,0.01,VWS V14.01,2013-01-13 12:57:00,
2013-01-13 08:02:00,57.0,55.9,30.01,WSW,251,0.0,0.0,96,0.00,,SKC,0.01,VWS V14.01,2013-01-13 13:02:00,
2013-01-13 08:07:00,57.0,55.9,30.01,WSW,251,0.0,0.0,96,0.00,,SKC,0.01,VWS V14.01,2013-01-13 13:07:00,
2013-01-13 08:12:00,57.0,55.9,30.01,WSW,251,0.0,0.0,96,0.00,,SKC,0.01,VWS V14.01,2013-01-13 13:12:00,
2013-01-13 08:17:00,57.0,55.9,30.01,WSW,251,0.0,0.0,96,0.00,,SKC,0.01,VWS V14.01,2013-01-13 13:17:00,
2013-01-13 08:22:00,57.0,55.9,30.01,WSW,251,0.0,0.0,96,0.00,,SKC,0.01,VWS V14.01,2013-01-13 13:22:00,
2013-01-13 08:27:00,57.2,56.1,30.01,WSW,251,0.0,0.0,96,0.00,,SKC,0.01,VWS V14.01,2013-01-13 13:27:00,
2013-01-13 08:32:00,57.2,56.1,30.02,WSW,254,0.0,0.0,96,0.00,,SKC,0.01,VWS V14.01,2013-01-13 13:32:00,
2013-01-13 08:37:00,57.5,56.4,30.02,WSW,255,0.0,0.0,96,0.00,,SKC,0.01,VWS V14.01,2013-01-13 13:37:00,
2013-01-13 08:42:00,57.8,56.7,30.02,WSW,255,0.0,0.0,96,0.00,,SKC,0.01,VWS V14.01,2013-01-13 13:42:00,
2013-01-13 08:47:00,58.1,56.7,30.02,WSW,255,0.0,0.0,95,0.00,,SKC,0.01,VWS V14.01,2013-01-13 13:47:00,
2013-01-13 08:52:00,58.3,56.6,30.02,WSW,255,0.0,0.0,94,0.00,,SKC,0.01,VWS V14.01,2013-01-13 13:52:00,
2013-01-13 08:57:00,58.6,56.9,30.02,WSW,255,0.0,0.0,94,0.00,,SKC,0.01,VWS V14.01,2013-01-13 13:57:00,
2013-01-13 09:02:00,58.7,56.7,30.02,WSW,255,0.0,0.0,93,0.00,,SKC,0.01,VWS V14.01,2013-01-13 14:02:00,
2013-01-13 09:07:00,58.7,56.4,30.02,WSW,256,0.0,0.0,92,0.00,,SKC,0.01,VWS V14.01,2013-01-13 14:07:00,
2013-01-13 09:12:00,58.7,56.4,30.02,WSW,256,0.0,0.0,92,0.00,,SKC,0.01,VWS V14.01,2013-01-13 14:12:00,
2013-01-13 09:17:00,58.9,56.6,30.02,WSW,256,0.0,0.0,92,0.00,,SKC,0.01,VWS V14.01,2013-01-13 14:17:00,
2013-01-13 09:22:00,59.0,56.4,30.02,WSW,256,0.0,0.0,91,0.00,,SKC,0.01,VWS V14.01,2013-01-13 14:22:00,
2013-01-13 09:27:00,59.3,56.4,30.02,WSW,255,0.0,0.0,90,0.00,,SKC,0.01,VWS V14.01,2013-01-13 14:27:00,
2013-01-13 09:32:00,59.5,56.3,30.02,WSW,256,0.0,0.0,89,0.00,,SKC,0.01,VWS V14.01,2013-01-13 14:32:00,
2013-01-13 09:37:00,59.8,56.6,30.02,West,259,0.0,0.0,89,0.00,,SKC,0.01,VWS V14.01,2013-01-13 14:37:00,
2013-01-13 09:42:00,59.9,56.3,30.02,West,259,0.0,0.0,88,0.00,,SKC,0.01,VWS V14.01,2013-01-13 14:42:00,
2013-01-13 09:47:00,60.2,56.6,30.02,West,259,0.0,0.0,88,0.00,,SKC,0.01,VWS V14.01,2013-01-13 14:47:00,
2013-01-13 09:52:00,60.7,57.1,30.02,West,259,0.0,0.0,88,0.00,,SKC,0.01,VWS V14.01,2013-01-13 14:52:00,
2013-01-13 09:57:00,60.9,57.0,30.02,West,259,0.0,0.0,87,0.00,,SKC,0.01,VWS V14.01,2013-01-13 14:57:00,
2013-01-13 10:02:00,61.0,57.1,30.02,WSW,255,0.0,0.0,87,0.00,,SKC,0.01,VWS V14.01,2013-01-13 15:02:00,
2013-01-13 10:07:00,61.2,57.0,30.02,WSW,255,0.0,0.0,86,0.00,,SKC,0.01,VWS V14.01,2013-01-13 15:07:00,
2013-01-13 10:12:00,61.5,57.3,30.02,WSW,253,0.0,0.0,86,0.00,,SKC,0.01,VWS V14.01,2013-01-13 15:12:00,
2013-01-13 10:17:00,61.8,57.2,30.02,WSW,253,0.0,0.0,85,0.00,,SKC,0.01,VWS V14.01,2013-01-13 15:17:00,
2013-01-13 10:22:00,62.0,57.5,30.02,WSW,253,0.0,0.0,85,0.00,,SKC,0.01,VWS V14.01,2013-01-13 15:22:00,
2013-01-13 10:27:00,62.0,57.1,30.02,WSW,253,0.0,0.0,84,0.00,,SKC,0.01,VWS V14.01,2013-01-13 15:27:00,
2013-01-13 10:32:00,62.0,57.1,30.02,WSW,253,0.0,0.0,84,0.00,,SKC,0.01,VWS V14.01,2013-01-13 15:32:00,
2013-01-13 10:37:00,62.0,57.5,30.02,WSW,253,0.0,0.0,85,0.00,,SKC,0.01,VWS V14.01,2013-01-13 15:37:00,
2013-01-13 10:42:00,62.4,57.2,30.02,WSW,253,0.0,0.0,83,0.00,,SKC,0.01,VWS V14.01,2013-01-13 15:42:00,
2013-01-13 10:47:00,63.1,57.9,30.01,WSW,253,0.0,0.0,83,0.00,,SKC,0.01,VWS V14.01,2013-01-13 15:47:00,
2013-01-13 10:52:00,63.9,57.6,30.01,SW,225,0.0,0.0,80,0.00,,SKC,0.01,VWS V14.01,2013-01-13 15:52:00,
2013-01-13 10:57:00,63.9,57.3,30.01,SE,131,0.0,0.0,79,0.00,,SKC,0.01,VWS V14.01,2013-01-13 15:57:00,
2013-01-13 11:02:00,64.0,57.4,30.00,SE,131,0.0,0.0,79,0.00,,SKC,0.01,VWS V14.01,2013-01-13 16:02:00,
2013-01-13 11:07:00,64.3,57.7,30.00,SE,131,0.0,0.0,79,0.00,,SKC,0.01,VWS V14.01,2013-01-13 16:07:00,
2013-01-13 11:12:00,64.3,57.3,30.00,SE,131,0.0,0.0,78,0.00,,SKC,0.01,VWS V14.01,2013-01-13 16:12:00,
2013-01-13 11:17:00,64.5,57.8,30.00,SE,131,0.0,0.0,79,0.00,,SKC,0.01,VWS V14.01,2013-01-13 16:17:00,
2013-01-13 11:22:00,64.5,57.8,30.00,SE,131,0.0,0.0,79,0.00,,SKC,0.01,VWS V14.01,2013-01-13 16:22:00,
2013-01-13 11:27:00,64.7,57.0,30.00,SE,131,0.0,0.0,76,0.00,,SKC,0.01,VWS V14.01,2013-01-13 16:27:00,
2013-01-13 11:32:00,64.7,57.0,29.98,SE,128,0.0,0.0,76,0.00,,SKC,0.01,VWS V14.01,2013-01-13 16:32:00,
2013-01-13 11:37:00,64.7,57.3,29.98,SE,129,0.0,0.0,77,0.00,,SKC,0.01,VWS V14.01,2013-01-13 16:37:00,
2013-01-13 11:42:00,64.5,57.5,29.98,SE,130,0.0,0.0,78,0.00,,SKC,0.01,VWS V14.01,2013-01-13 16:42:00,
2013-01-13 11:47:00,65.2,58.2,29.98,SE,130,0.0,0.0,78,0.00,,SKC,0.01,VWS V14.01,2013-01-13 16:47:00,
2013-01-13 11:52:00,65.6,57.5,29.98,SE,127,0.0,0.0,75,0.00,,SKC,0.01,VWS V14.01,2013-01-13 16:52:00,
2013-01-13 11:57:00,65.5,57.0,29.98,SE,129,0.0,0.0,74,0.00,,SKC,0.01,VWS V14.01,2013-01-13 16:57:00,
2013-01-13 12:02:00,65.0,56.9,29.97,SE,131,0.0,0.0,75,0.00,,SKC,0.01,VWS V14.01,2013-01-13 17:02:00,
2013-01-13 12:07:00,65.0,56.9,29.97,WNW,294,0.0,0.0,75,0.00,,SKC,0.01,VWS V14.01,2013-01-13 17:07:00,
2013-01-13 12:12:00,65.2,57.5,29.97,WNW,302,0.0,0.0,76,0.00,,SKC,0.01,VWS V14.01,2013-01-13 17:12:00,
2013-01-13 12:17:00,65.8,57.7,29.96,WSW,249,0.0,0.0,75,0.00,,SKC,0.01,VWS V14.01,2013-01-13 17:17:00,
2013-01-13 12:22:00,66.4,57.5,29.96,SE,134,0.0,0.0,73,0.00,,SKC,0.01,VWS V14.01,2013-01-13 17:22:00,
2013-01-13 12:27:00,66.4,57.5,29.96,SE,136,0.0,0.0,73,0.00,,SKC,0.01,VWS V14.01,2013-01-13 17:27:00,
2013-01-13 12:32:00,66.3,57.8,29.96,SE,140,0.0,0.0,74,0.00,,SKC,0.01,VWS V14.01,2013-01-13 17:32:00,
2013-01-13 12:37:00,66.3,57.0,29.96,ENE,60,0.0,0.0,72,0.00,,SKC,0.01,VWS V14.01,2013-01-13 17:37:00,
2013-01-13 12:42:00,66.3,57.4,29.96,ENE,72,0.0,0.0,73,0.00,,SKC,0.01,VWS V14.01,2013-01-13 17:42:00,
2013-01-13 12:47:00,66.1,58.0,29.95,West,264,0.0,0.0,75,0.00,,SKC,0.01,VWS V14.01,2013-01-13 17:47:00,
2013-01-13 12:52:00,66.1,57.6,29.95,WNW,290,0.0,0.0,74,0.00,,SKC,0.01,VWS V14.01,2013-01-13 17:52:00,
2013-01-13 12:57:00,66.6,57.7,29.95,WNW,299,0.0,0.0,73,0.00,,SKC,0.01,VWS V14.01,2013-01-13 17:57:00,
2013-01-13 13:02:00,66.6,57.3,29.94,North,6,0.0,0.0,72,0.00,,SKC,0.01,VWS V14.01,2013-01-13 18:02:00,
2013-01-13 13:07:00,66.9,57.6,29.94,NNE,31,0.0,0.0,72,0.00,,SKC,0.01,VWS V14.01,2013-01-13 18:07:00,
2013-01-13 13:12:00,66.8,57.5,29.94,South,171,0.0,0.0,72,0.00,,SKC,0.01,VWS V14.01,2013-01-13 18:12:00,
2013-01-13 13:17:00,66.6,57.3,29.94,NW,319,0.0,0.0,72,0.00,,SKC,0.01,VWS V14.01,2013-01-13 18:17:00,
2013-01-13 13:22:00,66.6,57.3,29.94,WNW,284,0.0,0.0,72,0.00,,SKC,0.01,VWS V14.01,2013-01-13 18:22:00,
2013-01-13 13:27:00,66.8,57.5,29.94,NW,323,0.0,0.0,72,0.00,,SKC,0.01,VWS V14.01,2013-01-13 18:27:00,
2013-01-13 13:32:00,66.9,57.2,29.94,West,272,0.0,0.0,71,0.00,,SKC,0.01,VWS V14.01,2013-01-13 18:32:00,
2013-01-13 13:37:00,66.9,57.2,29.94,ESE,113,0.0,0.0,71,0.00,,SKC,0.01,VWS V14.01,2013-01-13 18:37:00,
2013-01-13 13:42:00,66.9,57.6,29.94,ESE,122,0.0,0.0,72,0.00,,SKC,0.01,VWS V14.01,2013-01-13 18:42:00,
2013-01-13 13:47:00,66.9,57.2,29.93,NW,316,0.0,0.0,71,0.00,,SKC,0.01,VWS V14.01,2013-01-13 18:47:00,
2013-01-13 13:52:00,67.3,57.6,29.93,ESE,109,0.0,0.0,71,0.00,,SKC,0.01,VWS V14.01,2013-01-13 18:52:00,
2013-01-13 13:57:00,67.8,57.3,29.93,SE,134,0.0,0.0,69,0.00,,SKC,0.01,VWS V14.01,2013-01-13 18:57:00,
2013-01-13 14:02:00,67.8,57.7,29.92,ESE,115,0.0,0.0,70,0.00,,SKC,0.01,VWS V14.01,2013-01-13 19:02:00,
2013-01-13 14:07:00,67.3,57.6,29.92,SE,125,0.0,0.0,71,0.00,,SKC,0.01,VWS V14.01,2013-01-13 19:07:00,
2013-01-13 14:12:00,67.6,57.5,29.92,SE,139,0.0,0.0,70,0.00,,SKC,0.01,VWS V14.01,2013-01-13 19:12:00,
2013-01-13 14:17:00,67.8,57.7,29.93,NW,309,0.0,0.0,70,0.00,,SKC,0.01,VWS V14.01,2013-01-13 19:17:00,
2013-01-13 14:22:00,67.4,57.3,29.93,WNW,297,0.0,0.0,70,0.00,,SKC,0.01,VWS V14.01,2013-01-13 19:22:00,
2013-01-13 14:27:00,66.9,57.6,29.93,West,271,0.0,0.0,72,0.00,,SKC,0.01,VWS V14.01,2013-01-13 19:27:00,
2013-01-13 14:32:00,66.9,57.6,29.94,West,268,0.0,0.0,72,0.00,,SKC,0.01,VWS V14.01,2013-01-13 19:32:00,
2013-01-13 14:37:00,66.9,57.6,29.94,West,270,0.0,0.0,72,0.00,,SKC,0.01,VWS V14.01,2013-01-13 19:37:00,
2013-01-13 14:42:00,67.4,57.7,29.94,NW,305,0.0,0.0,71,0.00,,SKC,0.01,VWS V14.01,2013-01-13 19:42:00,
2013-01-13 14:47:00,67.6,58.3,29.93,ESE,107,0.0,0.0,72,0.00,,SKC,0.01,VWS V14.01,2013-01-13 19:47:00,
2013-01-13 14:52:00,67.6,58.3,29.93,ESE,110,0.0,0.0,72,0.00,,SKC,0.01,VWS V14.01,2013-01-13 19:52:00,
2013-01-13 14:57:00,67.8,58.1,29.93,ESE,111,0.0,0.0,71,0.00,,SKC,0.01,VWS V14.01,2013-01-13 19:57:00,
2013-01-13 15:02:00,67.8,57.7,29.93,ESE,118,0.0,0.0,70,0.00,,SKC,0.01,VWS V14.01,2013-01-13 20:02:00,
2013-01-13 15:07:00,67.9,57.8,29.93,ESE,112,0.0,0.0,70,0.00,,SKC,0.01,VWS V14.01,2013-01-13 20:07:00,
2013-01-13 15:12:00,67.8,58.1,29.93,ESE,117,0.0,0.0,71,0.00,,SKC,0.01,VWS V14.01,2013-01-13 20:12:00,
2013-01-13 15:17:00,67.6,57.1,29.94,ESE,117,0.0,0.0,69,0.00,,SKC,0.01,VWS V14.01,2013-01-13 20:17:00,
2013-01-13 15:22:00,67.4,57.7,29.94,ESE,117,0.0,0.0,71,0.00,,SKC,0.01,VWS V14.01,2013-01-13 20:22:00,
2013-01-13 15:27:00,67.4,57.3,29.94,ENE,75,0.0,0.0,70,0.00,,SKC,0.01,VWS V14.01,2013-01-13 20:27:00,
2013-01-13 15:32:00,67.4,57.3,29.94,SE,136,0.0,0.0,70,0.00,,SKC,0.01,VWS V14.01,2013-01-13 20:32:00,
2013-01-13 15:37:00,67.4,57.3,29.94,ESE,123,0.0,0.0,70,0.00,,SKC,0.01,VWS V14.01,2013-01-13 20:37:00,
2013-01-13 15:42:00,67.3,57.2,29.94,SE,124,0.0,0.0,70,0.00,,SKC,0.01,VWS V14.01,2013-01-13 20:42:00,
2013-01-13 15:47:00,67.3,57.2,29.94,SE,124,0.0,0.0,70,0.00,,SKC,0.01,VWS V14.01,2013-01-13 20:47:00,
2013-01-13 15:52:00,67.1,57.0,29.94,SE,124,0.0,0.0,70,0.00,,SKC,0.01,VWS V14.01,2013-01-13 20:52:00,
2013-01-13 15:57:00,66.9,57.2,29.94,SE,124,0.0,0.0,71,0.00,,SKC,0.01,VWS V14.01,2013-01-13 20:57:00,
2013-01-13 16:02:00,66.8,57.1,29.94,SE,124,0.0,0.0,71,0.00,,SKC,0.01,VWS V14.01,2013-01-13 21:02:00,
2013-01-13 16:07:00,66.8,57.1,29.94,ESE,122,0.0,0.0,71,0.00,,SKC,0.01,VWS V14.01,2013-01-13 21:07:00,
2013-01-13 16:12:00,66.6,57.3,29.94,SE,127,0.0,0.0,72,0.00,,SKC,0.01,VWS V14.01,2013-01-13 21:12:00,
2013-01-13 16:17:00,66.4,57.1,29.95,SE,125,0.0,0.0,72,0.00,,SKC,0.01,VWS V14.01,2013-01-13 21:17:00,
2013-01-13 16:22:00,66.3,57.0,29.95,SE,126,0.0,0.0,72,0.00,,SKC,0.01,VWS V14.01,2013-01-13 21:22:00,
2013-01-13 16:27:00,66.3,57.4,29.95,ENE,72,0.0,0.0,73,0.00,,SKC,0.01,VWS V14.01,2013-01-13 21:27:00,
2013-01-13 16:32:00,66.1,57.2,29.96,South,184,0.0,0.0,73,0.00,,SKC,0.01,VWS V14.01,2013-01-13 21:32:00,
2013-01-13 16:37:00,66.0,57.1,29.96,SSE,148,0.0,0.0,73,0.00,,SKC,0.01,VWS V14.01,2013-01-13 21:37:00,
2013-01-13 16:42:00,65.8,56.9,29.96,SE,143,0.0,0.0,73,0.00,,SKC,0.01,VWS V14.01,2013-01-13 21:42:00,
2013-01-13 16:47:00,65.8,57.3,29.96,SE,134,0.0,0.0,74,0.00,,SKC,0.01,VWS V14.01,2013-01-13 21:47:00,
2013-01-13 16:52:00,65.6,57.1,29.96,WNW,289,0.0,0.0,74,0.00,,SKC,0.01,VWS V14.01,2013-01-13 21:52:00,
2013-01-13 16:57:00,65.5,57.4,29.96,NNE,25,0.0,0.0,75,0.00,,SKC,0.01,VWS V14.01,2013-01-13 21:57:00,
2013-01-13 17:02:00,65.3,57.2,29.97,ESE,108,0.0,0.0,75,0.00,,SKC,0.01,VWS V14.01,2013-01-13 22:02:00,
2013-01-13 17:07:00,65.2,57.1,29.97,ESE,107,0.0,0.0,75,0.00,,SKC,0.01,VWS V14.01,2013-01-13 22:07:00,
2013-01-13 17:12:00,65.0,56.9,29.97,NNW,342,0.0,0.0,75,0.00,,SKC,0.01,VWS V14.01,2013-01-13 22:12:00,
2013-01-13 17:17:00,64.8,56.7,29.97,NNW,346,0.0,0.0,75,0.00,,SKC,0.01,VWS V14.01,2013-01-13 22:17:00,
2013-01-13 17:22:00,64.8,56.7,29.97,North,349,0.0,0.0,75,0.00,,SKC,0.01,VWS V14.01,2013-01-13 22:22:00,
2013-01-13 17:27:00,64.7,57.0,29.97,North,349,0.0,0.0,76,0.00,,SKC,0.01,VWS V14.01,2013-01-13 22:27:00,
2013-01-13 17:32:00,64.5,56.8,29.97,NE,36,0.0,0.0,76,0.00,,SKC,0.01,VWS V14.01,2013-01-13 22:32:00,
2013-01-13 17:37:00,64.5,56.8,29.97,WSW,252,0.0,0.0,76,0.00,,SKC,0.01,VWS V14.01,2013-01-13 22:37:00,
2013-01-13 17:42:00,64.3,57.0,29.97,WSW,249,0.0,0.0,77,0.00,,SKC,0.01,VWS V14.01,2013-01-13 22:42:00,
2013-01-13 17:47:00,64.2,56.5,29.97,WSW,251,0.0,0.0,76,0.00,,SKC,0.01,VWS V14.01,2013-01-13 22:47:00,
2013-01-13 17:52:00,64.0,56.7,29.97,NW,308,0.0,0.0,77,0.00,,SKC,0.01,VWS V14.01,2013-01-13 22:52:00,
2013-01-13 17:57:00,63.9,56.6,29.97,WNW,292,0.0,0.0,77,0.00,,SKC,0.01,VWS V14.01,2013-01-13 22:57:00,
2013-01-13 18:02:00,63.5,56.5,29.97,East,89,0.0,0.0,78,0.00,,SKC,0.01,VWS V14.01,2013-01-13 23:02:00,
2013-01-13 18:07:00,63.4,56.4,29.97,WSW,239,0.0,0.0,78,0.00,,SKC,0.01,VWS V14.01,2013-01-13 23:07:00,
2013-01-13 18:12:00,63.2,56.6,29.97,NNW,342,0.0,0.0,79,0.00,,SKC,0.01,VWS V14.01,2013-01-13 23:12:00,
2013-01-13 18:17:00,63.2,56.6,29.97,ESE,122,0.0,0.0,79,0.00,,SKC,0.01,VWS V14.01,2013-01-13 23:17:00,
2013-01-13 18:22:00,63.1,56.5,29.97,SSE,151,0.0,0.0,79,0.00,,SKC,0.01,VWS V14.01,2013-01-13 23:22:00,
2013-01-13 18:27:00,62.9,56.3,29.97,SSE,151,0.0,0.0,79,0.00,,SKC,0.01,VWS V14.01,2013-01-13 23:27:00,
2013-01-13 18:32:00,62.7,56.1,29.98,SSE,153,0.0,0.0,79,0.00,,SKC,0.01,VWS V14.01,2013-01-13 23:32:00,
2013-01-13 18:37:00,62.6,56.0,29.98,SSE,153,0.0,0.0,79,0.00,,SKC,0.01,VWS V14.01,2013-01-13 23:37:00,
2013-01-13 18:42:00,62.4,56.2,29.98,SSE,158,0.0,0.0,80,0.00,,SKC,0.01,VWS V14.01,2013-01-13 23:42:00,
2013-01-13 18:47:00,62.4,56.2,29.99,South,169,0.0,0.0,80,0.00,,SKC,0.01,VWS V14.01,2013-01-13 23:47:00,
2013-01-13 18:52:00,62.3,56.1,29.99,South,172,0.0,0.0,80,0.00,,SKC,0.01,VWS V14.01,2013-01-13 23:52:00,
2013-01-13 18:57:00,62.1,55.9,29.99,South,172,0.0,0.0,80,0.00,,SKC,0.01,VWS V14.01,2013-01-13 23:57:00,
2013-01-13 19:02:00,62.1,55.9,29.99,South,172,0.0,0.0,80,0.00,,SKC,0.01,VWS V14.01,2013-01-14 00:02:00,
2013-01-13 19:07:00,62.1,55.9,29.99,South,191,0.0,0.0,80,0.00,,SKC,0.01,VWS V14.01,2013-01-14 00:07:00,
2013-01-13 19:12:00,62.0,55.8,29.99,South,191,0.0,0.0,80,0.00,,SKC,0.01,VWS V14.01,2013-01-14 00:12:00,
2013-01-13 19:17:00,61.8,55.6,29.98,South,191,0.0,0.0,80,0.00,,SKC,0.01,VWS V14.01,2013-01-14 00:17:00,
2013-01-13 19:22:00,61.6,55.4,29.98,SSW,209,0.0,0.0,80,0.00,,SKC,0.01,VWS V14.01,2013-01-14 00:22:00,
2013-01-13 19:27:00,61.6,55.4,29.98,SSW,209,0.0,0.0,80,0.00,,SKC,0.01,VWS V14.01,2013-01-14 00:27:00,
2013-01-13 19:31:00,61.5,55.6,29.98,SSW,209,0.0,0.0,81,0.00,,SKC,0.01,VWS V14.01,2013-01-14 00:31:00,
2013-01-13 19:36:00,61.3,55.1,29.98,SSW,209,0.0,0.0,80,0.00,,SKC,0.01,VWS V14.01,2013-01-14 00:36:00,
2013-01-13 19:41:00,61.3,55.1,29.98,WSW,248,0.0,0.0,80,0.00,,SKC,0.01,VWS V14.01,2013-01-14 00:41:00,
2013-01-13 19:46:00,61.5,55.3,29.99,WSW,258,0.0,0.0,80,0.00,,SKC,0.01,VWS V14.01,2013-01-14 00:46:00,
2013-01-13 19:51:00,61.3,55.1,29.99,WSW,257,0.0,0.0,80,0.00,,SKC,0.01,VWS V14.01,2013-01-14 00:51:00,
2013-01-13 19:56:00,61.3,55.1,29.99,WSW,257,0.0,0.0,80,0.00,,SKC,0.01,VWS V14.01,2013-01-14 00:56:00,
2013-01-13 20:01:00,61.0,55.1,29.98,SW,233,0.0,0.0,81,0.00,,SKC,0.01,VWS V14.01,2013-01-14 01:01:00,
2013-01-13 20:06:00,60.9,55.0,29.98,WSW,238,0.0,0.0,81,0.00,,SKC,0.01,VWS V14.01,2013-01-14 01:06:00,
2013-01-13 20:11:00,60.5,55.0,29.98,WSW,250,0.0,0.0,82,0.00,,SKC,0.01,VWS V14.01,2013-01-14 01:11:00,
2013-01-13 20:16:00,60.5,55.0,29.96,WSW,250,0.0,0.0,82,0.00,,SKC,0.01,VWS V14.01,2013-01-14 01:16:00,
2013-01-13 20:21:00,60.7,54.8,29.96,West,271,0.0,0.0,81,0.00,,SKC,0.01,VWS V14.01,2013-01-14 01:21:00,
2013-01-13 20:26:00,60.9,55.0,29.96,NW,317,0.0,0.0,81,0.00,,SKC,0.01,VWS V14.01,2013-01-14 01:26:00,
2013-01-13 20:31:00,60.9,55.0,29.97,NW,317,0.0,0.0,81,0.00,,SKC,0.01,VWS V14.01,2013-01-14 01:31:00,
2013-01-13 20:36:00,61.0,54.8,29.97,NW,309,0.0,0.0,80,0.00,,SKC,0.01,VWS V14.01,2013-01-14 01:36:00,
2013-01-13 20:41:00,61.2,55.0,29.97,NW,309,0.0,0.0,80,0.00,,SKC,0.01,VWS V14.01,2013-01-14 01:41:00,
2013-01-13 20:46:00,61.2,55.0,29.97,WNW,294,0.0,0.0,80,0.00,,SKC,0.01,VWS V14.01,2013-01-14 01:46:00,
2013-01-13 20:51:00,61.2,55.0,29.97,West,261,0.0,0.0,80,0.00,,SKC,0.01,VWS V14.01,2013-01-14 01:51:00,
2013-01-13 20:56:00,61.3,55.1,29.97,West,259,0.0,0.0,80,0.00,,SKC,0.01,VWS V14.01,2013-01-14 01:56:00,
2013-01-13 21:01:00,61.2,55.0,29.97,SSE,167,0.0,0.0,80,0.00,,SKC,0.01,VWS V14.01,2013-01-14 02:01:00,
2013-01-13 21:06:00,61.2,55.3,29.97,WSW,252,0.0,0.0,81,0.00,,SKC,0.01,VWS V14.01,2013-01-14 02:06:00,
2013-01-13 21:11:00,61.2,55.3,29.97,WSW,258,0.0,0.0,81,0.00,,SKC,0.01,VWS V14.01,2013-01-14 02:11:00,
2013-01-13 21:16:00,61.2,55.3,29.97,WSW,258,0.0,0.0,81,0.00,,SKC,0.01,VWS V14.01,2013-01-14 02:16:00,
2013-01-13 21:21:00,61.2,55.3,29.97,WSW,258,0.0,0.0,81,0.00,,SKC,0.01,VWS V14.01,2013-01-14 02:21:00,
2013-01-13 21:26:00,61.5,55.3,29.97,WSW,245,0.0,0.0,80,0.00,,SKC,0.01,VWS V14.01,2013-01-14 02:26:00,
2013-01-13 21:31:00,61.5,55.3,29.97,WSW,247,0.0,0.0,80,0.00,,SKC,0.01,VWS V14.01,2013-01-14 02:31:00,
2013-01-13 21:36:00,61.5,55.6,29.97,WSW,245,0.0,0.0,81,0.00,,SKC,0.01,VWS V14.01,2013-01-14 02:36:00,
2013-01-13 21:41:00,61.2,55.7,29.97,WSW,248,0.0,0.0,82,0.00,,SKC,0.01,VWS V14.01,2013-01-14 02:41:00,
2013-01-13 21:46:00,61.0,55.5,29.96,WSW,248,0.0,0.0,82,0.00,,SKC,0.01,VWS V14.01,2013-01-14 02:46:00,
2013-01-13 21:51:00,61.0,55.5,29.96,WSW,237,0.0,0.0,82,0.00,,SKC,0.01,VWS V14.01,2013-01-14 02:51:00,
2013-01-13 21:56:00,61.0,55.5,29.96,SSW,212,0.0,0.0,82,0.00,,SKC,0.01,VWS V14.01,2013-01-14 02:56:00,
2013-01-13 22:01:00,61.0,55.8,29.97,WSW,237,0.0,0.0,83,0.00,,SKC,0.01,VWS V14.01,2013-01-14 03:01:00,
2013-01-13 22:06:00,61.0,55.8,29.97,West,266,0.0,0.0,83,0.00,,SKC,0.01,VWS V14.01,2013-01-14 03:06:00,
2013-01-13 22:11:00,61.0,55.8,29.97,West,269,0.0,0.0,83,0.00,,SKC,0.01,VWS V14.01,2013-01-14 03:11:00,
2013-01-13 22:16:00,61.2,55.7,29.96,West,275,0.0,0.0,82,0.00,,SKC,0.01,VWS V14.01,2013-01-14 03:16:00,
2013-01-13 22:21:00,61.3,55.8,29.96,West,275,0.0,0.0,82,0.00,,SKC,0.01,VWS V14.01,2013-01-14 03:21:00,
2013-01-13 22:26:00,61.2,56.0,29.96,WNW,283,0.0,0.0,83,0.00,,SKC,0.01,VWS V14.01,2013-01-14 03:26:00,
2013-01-13 22:31:00,61.2,56.0,29.96,WNW,283,0.0,0.0,83,0.00,,SKC,0.01,VWS V14.01,2013-01-14 03:31:00,
2013-01-13 22:36:00,61.2,56.0,29.96,West,266,0.0,0.0,83,0.00,,SKC,0.01,VWS V14.01,2013-01-14 03:36:00,
2013-01-13 22:41:00,61.3,56.1,29.96,West,274,0.0,0.0,83,0.00,,SKC,0.01,VWS V14.01,2013-01-14 03:41:00,
2013-01-13 22:46:00,61.3,56.1,29.97,West,278,0.0,0.0,83,0.00,,SKC,0.01,VWS V14.01,2013-01-14 03:46:00,
2013-01-13 22:51:00,61.3,56.4,29.97,West,280,0.0,0.0,84,0.00,,SKC,0.01,VWS V14.01,2013-01-14 03:51:00,
2013-01-13 22:56:00,61.3,56.4,29.97,West,276,0.0,0.0,84,0.00,,SKC,0.01,VWS V14.01,2013-01-14 03:56:00,
2013-01-13 23:01:00,61.3,56.4,29.98,West,276,0.0,0.0,84,0.00,,SKC,0.01,VWS V14.01,2013-01-14 04:01:00,
2013-01-13 23:06:00,61.5,56.6,29.98,SW,217,0.0,0.0,84,0.00,,SKC,0.01,VWS V14.01,2013-01-14 04:06:00,
2013-01-13 23:11:00,61.6,56.4,29.98,SW,217,0.0,0.0,83,0.00,,SKC,0.01,VWS V14.01,2013-01-14 04:11:00,
2013-01-13 23:16:00,61.8,56.6,29.98,SW,217,0.0,0.0,83,0.00,,SKC,0.01,VWS V14.01,2013-01-14 04:16:00,
2013-01-13 23:21:00,61.8,56.6,29.98,SW,217,0.0,0.0,83,0.00,,SKC,0.01,VWS V14.01,2013-01-14 04:21:00,
2013-01-13 23:26:00,61.8,56.6,29.98,SW,224,0.0,0.0,83,0.00,,SKC,0.01,VWS V14.01,2013-01-14 04:26:00,
2013-01-13 23:31:00,62.0,56.8,29.98,WSW,239,0.0,0.0,83,0.00,,SKC,0.01,VWS V14.01,2013-01-14 04:31:00,
2013-01-13 23:36:00,62.0,57.1,29.98,WSW,244,0.0,0.0,84,0.00,,SKC,0.01,VWS V14.01,2013-01-14 04:36:00,
2013-01-13 23:41:00,61.8,57.2,29.98,WSW,244,0.0,0.0,85,0.00,,SKC,0.01,VWS V14.01,2013-01-14 04:41:00,
2013-01-13 23:46:00,61.5,57.3,29.97,SW,222,0.0,0.0,86,0.00,,SKC,0.01,VWS V14.01,2013-01-14 04:46:00,
2013-01-13 23:51:00,61.5,57.3,29.97,SW,222,0.0,0.0,86,0.00,,SKC,0.01,VWS V14.01,2013-01-14 04:51:00,
2013-01-13 23:56:00,61.5,57.3,29.97,SW,222,0.0,0.0,86,0.00,,SKC,0.01,VWS V14.01,2013-01-14 04:56:00,